Theta_e
312 312 311 312 315 325 333 333 336 335 335 336 335 337 337 337 337 336 332 329 335 340 342 342 341 342 344 344 345 345 344 344 343 343 343 343 342 340 341 341 341 340 341
314 314 314 314 313 312 314 325 330 331 333 334 334 334 334 335 337 337 337 336 331 335 338 341 340 341 343 344 345 346 345 344 344 344 343 343 342 341 341 341 341 341 341
312 312 313 314 314 315 315 314 316 326 328 331 332 332 333 334 334 332 334 336 334 329 334 340 340 341 343 343 344 346 345 344 344 343 343 342 342 342 342 341 342 341 341
314 313 313 313 314 315 315 314 314 317 323 326 328 331 332 332 333 333 334 334 334 336 330 335 338 340 340 342 341 343 344 343 343 341 342 341 341 341 341 341 342 342 342
315 312 312 313 314 313 314 315 314 313 313 316 321 324 328 330 331 333 332 332 334 335 335 331 331 333 336 339 339 339 341 341 341 340 340 339 339 338 339 340 341 342 342
315 314 313 313 314 313 313 314 313 314 314 315 319 320 321 326 329 330 330 332 332 333 334 333 329 329 329 335 336 336 336 337 338 334 332 331 332 334 336 336 338 339 340
316 314 313 314 313 312 312 313 313 312 312 314 313 313 316 321 323 326 327 328 330 332 333 334 332 330 329 330 332 333 333 332 334 334 332 330 329 330 332 330 334 338 340
314 315 312 312 313 313 313 313 312 312 312 313 310 309 307 310 314 319 323 325 327 329 330 332 333 332 330 327 327 330 331 333 336 336 335 333 333 334 334 331 333 338 339
313 315 315 313 312 312 312 313 313 312 310 312 314 311 306 305 309 313 314 318 323 327 328 329 330 329 328 328 326 326 327 331 334 335 336 336 336 335 336 337 337 337 338
311 312 314 313 314 313 312 312 315 313 312 310 312 315 313 312 306 304 310 314 317 319 317 317 327 328 328 328 326 324 324 326 331 332 333 334 334 335 335 335 336 335 335
309 312 313 312 311 313 314 313 312 312 312 311 310 310 310 311 311 307 304 308 314 315 316 312 317 328 328 328 327 322 324 326 327 329 332 333 331 331 332 333 332 332 331
307 309 312 312 313 312 313 314 314 314 313 312 312 311 310 308 308 306 305 307 309 313 316 322 322 322 321 320 319 319 322 325 326 325 326 327 326 325 325 326 325 324 324
305 307 309 310 311 312 314 313 313 311 311 310 310 311 313 313 313 312 310 309 307 311 314 315 313 313 314 311 311 312 316 320 323 325 324 320 316 315 316 317 317 317 317
305 305 308 309 310 312 313 313 314 313 313 313 314 314 314 315 316 315 313 311 307 308 312 311 307 308 308 308 308 308 308 310 311 312 312 310 307 307 308 309 310 310 310
305 306 307 307 308 309 311 312 312 309 313 314 314 315 314 314 315 315 315 315 311 306 307 307 304 304 303 303 303 302 301 304 305 305 304 303 303 303 304 304 305 305 305
303 305 305 306 305 305 309 309 309 309 309 311 309 311 309 309 310 310 310 311 312 311 307 306 301 301 301 299 301 299 299 299 299 299 300 300 301 301 302 302 302 302 302
302 302 304 304 303 304 306 304 305 307 304 304 304 304 302 302 302 302 304 305 304 305 307 301 301 299 297 297 297 297 296 296 296 297 297 298 300 300 300 299 299 300 301
301 301 301 302 301 302 302 301 301 302 301 300 299 299 299 302 298 298 297 296 295 297 302 301 298 296 294 295 295 294 294 294 294 296 297 297 298 298 298 298 298 298 299
298 300 300 300 300 300 299 300 300 301 299 297 295 294 293 295 297 298 296 293 294 297 300 299 294 295 293 292 292 292 289 290 293 296 296 297 297 297 297 297 297 296 296
296 299 300 300 299 299 299 299 299 299 296 294 294 293 292 292 293 294 293 289 291 291 295 294 292 290 291 290 289 285 286 287 288 293 295 294 294 295 295 296 296 295 295
296 296 296 297 298 298 299 296 296 296 294 292 291 292 291 293 295 295 291 288 287 287 288 287 287 289 288 285 284 285 284 285 286 288 286 286 286 287 289 293 294 295 295
294 294 293 293 293 296 298 298 297 294 295 293 291 290 291 293 293 294 294 294 292 287 286 285 283 283 283 283 284 283 283 282 281 286 283 283 286 286 288 288 294 294 294
292 292 291 290 291 292 298 297 297 293 293 291 290 289 288 289 290 289 291 292 292 293 292 285 283 282 283 284 284 283 282 281 281 284 283 281 284 283 286 288 291 293 293
290 290 290 290 290 292 298 297 297 291 290 290 289 289 287 287 288 287 286 286 285 285 286 287 284 284 284 285 284 284 282 281 282 284 283 277 281 280 283 284 290 292 292
290 290 291 290 289 290 297 297 294 290 290 289 289 289 289 288 291 290 287 284 284 284 288 290 289 289 289 288 286 282 279 279 278 279 281 279 279 279 280 281 285 291 291
291 291 291 290 292 289 296 297 295 288 286 287 287 288 293 290 293 291 286 283 282 283 283 282 282 284 285 285 286 282 281 275 276 275 282 277 277 278 274 278 281 283 284
Wind_Speed
4 4 5 5 5 4 3 4 5 5 5 7 6 10 11 10 11 6 4 11 16 19 19 19 21 22 21 21 19 19 17 17 17 16 16 15 14 15 15 15 15 15 15
4 4 5 5 5 5 5 4 5 5 5 5 7 8 6 6 10 10 7 8 14 18 20 20 21 22 23 23 21 18 18 18 18 17 17 15 14 14 16 16 16 16 16
5 6 4 5 5 5 7 6 5 4 4 5 6 6 7 10 7 7 6 5 6 15 17 21 21 22 22 23 23 20 18 18 18 18 17 16 15 15 16 16 16 16 17
6 5 4 5 5 5 4 4 4 5 4 4 5 5 5 5 7 7 7 6 5 5 11 18 20 22 23 22 23 21 18 17 18 17 18 17 16 16 16 16 16 17 17
6 5 4 5 6 5 4 4 4 3 4 4 5 5 5 5 7 7 10 11 10 8 6 11 19 17 17 19 22 22 19 16 16 16 15 13 13 14 16 17 17 18 18
6 5 4 5 5 4 4 4 5 4 4 5 5 5 5 6 6 8 8 9 9 10 9 10 7 9 15 16 14 11 12 10 13 6 7 7 7 11 15 18 19 20 21
10 5 4 5 5 4 5 6 4 5 4 4 3 4 4 5 7 9 9 9 12 12 13 10 7 7 8 19 19 24 24 20 17 14 12 9 9 13 17 18 24 22 23
10 9 5 5 5 4 5 5 5 3 3 3 3 3 6 5 6 8 8 8 11 9 11 13 10 11 9 7 11 21 23 22 21 21 19 18 19 21 20 19 24 25 21
8 10 8 5 6 5 4 5 5 5 3 3 4 3 4 4 8 8 9 7 9 9 9 10 11 10 9 8 9 12 17 16 19 19 19 20 20 17 16 19 21 21 18
6 8 7 7 8 5 5 4 4 3 2 4 3 3 4 4 7 10 3 6 9 5 3 6 10 10 10 8 11 13 15 14 17 12 11 16 15 14 14 15 15 13 12
7 7 7 7 6 6 7 6 6 5 3 2 3 3 2 3 5 5 10 7 4 4 2 2 14 8 9 6 4 8 11 8 7 7 8 10 4 4 7 8 9 10 10
5 6 6 6 6 6 6 7 5 6 5 4 3 4 3 3 6 4 4 8 7 5 3 3 2 3 7 6 8 8 8 5 4 2 1 7 10 8 7 10 11 11 10
4 5 6 6 5 6 6 5 5 5 5 4 5 4 5 6 4 5 5 7 4 4 2 5 6 7 7 7 8 13 15 9 7 10 12 12 10 8 8 8 10 9 8
3 5 5 6 7 5 5 6 5 3 5 4 6 6 5 5 5 5 5 6 7 2 2 3 5 5 6 5 9 14 10 15 14 11 9 8 6 5 4 7 8 8 8
2 5 5 6 7 6 5 7 3 4 5 4 4 4 3 3 4 4 4 4 4 3 2 3 3 6 5 4 8 7 7 9 10 8 8 5 5 5 6 7 8 7 6
1 5 5 6 6 6 5 6 5 5 5 4 3 6 4 4 4 4 4 4 2 2 1 2 3 3 3 5 6 5 4 5 7 7 6 6 6 5 7 7 8 8 8
4 3 4 6 6 5 5 4 5 5 5 5 3 3 4 3 3 4 4 4 4 4 2 2 2 2 2 3 3 3 4 4 3 5 5 7 6 7 7 7 8 9 9
5 4 5 5 6 5 4 3 4 3 3 4 5 5 4 3 4 4 4 5 3 3 2 3 3 2 4 3 3 3 2 2 3 4 6 5 3 5 8 8 8 8 9
6 5 5 6 5 5 4 4 4 3 2 4 4 4 4 5 3 2 3 3 3 3 3 2 2 2 2 2 1 1 2 3 3 3 7 7 6 7 7 8 7 8 7
6 5 6 6 4 5 5 5 3 3 4 4 3 3 4 4 4 4 3 3 3 3 3 3 2 2 2 1 3 3 3 2 2 3 5 7 8 8 9 8 7 6 6
6 5 5 5 5 5 3 3 4 3 4 3 2 3 4 6 9 9 3 4 4 3 3 3 2 2 2 3 2 2 1 3 2 2 3 3 3 3 4 7 6 7 10
7 6 7 6 6 4 4 4 5 4 5 5 5 5 4 5 6 9 10 10 8 2 2 2 1 3 2 2 1 0 1 2 3 1 4 4 2 3 3 4 13 14 10
7 7 7 7 7 6 9 7 7 4 4 4 4 4 3 3 5 3 4 8 10 11 10 2 4 2 3 1 1 3 4 2 2 4 3 3 4 4 4 5 13 9 6
8 7 7 7 6 6 11 9 9 5 3 4 4 5 4 4 2 2 4 4 5 5 5 4 5 4 4 4 4 1 0 3 3 2 3 1 3 3 4 4 9 2 5
6 7 6 8 8 7 13 13 9 6 6 7 6 5 4 6 7 4 2 4 4 3 5 8 8 7 7 6 5 2 3 3 2 2 4 2 3 4 3 4 4 13 15
10 7 8 8 10 8 13 16 12 4 5 4 5 6 7 4 10 7 4 5 4 4 4 2 2 3 4 3 6 4 2 2 1 3 3 3 3 4 5 3 3 4 4
Wind_Direction
300 312 310 314 311 309 260 258 256 263 263 247 230 229 231 230 226 231 235 206 203 206 212 218 225 230 232 235 239 234 234 233 234 237 240 242 244 248 253 259 258 260 263
285 277 282 286 291 291 287 270 240 249 261 255 266 264 256 252 245 240 235 240 217 211 212 216 222 232 234 233 233 232 231 234 236 237 241 244 245 245 251 256 258 260 261
305 310 304 295 279 282 288 297 297 284 286 305 280 267 274 273 253 248 255 232 203 226 226 217 220 226 233 237 236 235 234 234 236 238 240 241 244 243 246 250 253 256 257
320 328 318 304 296 296 289 279 286 286 264 247 270 273 261 260 270 274 264 255 248 235 231 235 226 226 227 232 240 243 240 242 239 241 242 244 246 250 251 253 251 251 252
331 312 295 287 294 300 300 302 303 284 278 278 268 268 272 270 265 262 264 269 256 245 238 225 233 230 236 232 235 240 246 254 254 251 253 256 264 271 270 267 260 257 254
309 313 298 294 293 297 302 304 291 290 269 263 278 282 266 267 263 263 254 254 259 257 247 239 212 226 227 232 234 257 247 262 288 243 268 277 301 305 303 290 278 268 262
321 326 297 284 278 274 264 272 272 289 295 284 297 298 290 270 270 256 252 248 251 248 245 242 220 216 217 219 213 221 225 235 239 237 247 277 277 272 274 290 298 277 265
314 304 308 291 294 295 295 290 288 290 279 289 276 278 297 295 270 262 258 254 253 248 246 243 227 227 222 215 209 211 214 219 227 225 234 241 237 245 252 258 264 269 265
316 327 320 301 299 295 281 270 271 274 280 293 308 280 313 295 323 302 301 288 264 250 252 244 230 220 213 197 195 211 215 206 221 240 245 254 255 254 250 251 261 268 268
321 319 329 348 335 309 300 287 294 299 295 281 300 270 265 282 298 304 266 306 293 321 19 350 282 226 212 206 210 199 203 201 228 246 251 256 258 264 270 273 276 291 287
316 307 321 337 329 325 316 307 306 304 297 290 261 288 284 300 281 272 298 305 322 287 289 353 331 244 190 180 148 142 132 152 175 227 265 280 283 20 38 49 51 47 24
314 311 323 317 310 319 329 330 334 346 350 349 333 331 305 282 291 281 291 301 283 280 253 31 74 21 51 64 73 83 91 123 126 140 267 73 51 60 58 66 65 54 44
310 305 311 309 308 305 307 313 315 332 326 303 296 304 300 288 286 295 287 294 286 293 108 54 40 31 37 57 55 64 64 53 60 84 92 77 57 43 48 53 49 36 27
282 299 300 307 300 297 308 303 286 306 298 295 299 295 291 287 288 294 295 296 307 296 332 105 42 36 50 41 74 71 68 76 80 75 69 65 63 53 32 32 36 30 8
301 319 303 302 301 312 301 304 318 327 312 302 298 297 327 341 342 333 322 300 278 303 321 32 73 29 52 54 66 67 59 63 69 63 60 52 40 25 31 34 31 21 7
296 273 289 292 298 304 303 318 321 311 338 353 353 333 359 340 335 336 334 341 353 325 267 30 70 85 63 71 67 82 98 80 56 45 36 17 21 31 35 18 14 6 350
259 278 289 286 294 294 318 343 326 333 342 329 347 349 349 353 358 349 355 8 2 355 325 109 89 93 63 75 52 51 37 34 22 17 19 13 15 34 20 9 357 352 341
244 233 268 277 289 293 336 339 317 317 335 356 0 1 3 350 39 21 24 19 14 358 349 76 52 60 47 36 53 54 23 354 344 346 354 5 0 354 351 345 346 347 345
251 232 249 269 271 285 287 293 272 289 42 58 28 19 4 15 20 37 59 28 7 10 31 89 91 60 76 28 39 26 31 351 317 320 29 28 2 338 326 333 341 346 352
249 244 245 255 261 274 275 273 310 304 101 70 56 43 32 24 9 5 56 25 22 52 65 94 96 110 75 59 62 46 3 324 325 30 20 356 342 346 339 342 358 350 356
231 247 253 271 257 262 271 337 323 306 129 128 144 99 68 60 53 42 55 19 27 37 40 54 76 96 68 45 63 332 2 308 1 64 338 331 334 325 334 352 344 346 332
217 222 229 232 243 243 184 259 265 276 182 190 185 169 156 100 71 70 68 65 61 76 66 104 62 84 48 57 28 12 42 38 334 13 16 314 23 1 358 0 344 331 338
206 219 222 224 228 231 195 212 249 261 216 194 180 177 173 156 146 134 98 82 69 62 64 105 114 94 100 40 30 20 27 40 262 296 44 321 8 342 330 330 325 331 351
212 211 214 217 220 236 198 206 230 252 223 208 197 200 189 178 148 170 136 105 89 75 55 61 85 80 90 74 69 79 299 303 304 34 29 358 332 282 298 299 325 29 352
208 213 205 209 211 219 193 197 203 212 204 212 211 208 193 168 175 189 156 153 132 131 88 93 97 94 87 64 52 48 24 42 339 349 9 47 332 310 320 314 6 6 343
214 198 207 209 212 212 207 202 204 209 217 206 203 201 200 187 183 183 184 184 190 205 160 129 102 113 124 97 75 75 87 89 28 340 17 26 349 7 326 295 341 351 326